,,PA_Meas_PMT16A,,PR_Meas_QMR101_102,,RH_Meas_QMH101,,SR_Meas_QMS101,,TA_Meas_QMH101,,GenWind,,GenWind,
time,status,PA,status,PR,status,RH,status,SR,status,TA,status,DirAvg,status,SpdAvg,
2012-11-10, 00:00:05,VALID,918.096,VALID,0,VALID,97.4959,VALID,0,VALID,19.5288,VALID,131,VALID,0,
2012-11-10, 00:01:05,VALID,918.061,VALID,0,VALID,97.4959,VALID,0,VALID,19.5483,VALID,131,VALID,0,
2012-11-10, 00:02:05,VALID,918.094,VALID,0,VALID,97.5111,VALID,0,VALID,19.5483,VALID,131,VALID,0,
2012-11-10, 00:03:05,VALID,918.071,VALID,0,VALID,97.4882,VALID,0,VALID,19.5678,VALID,131,VALID,0,
2012-11-10, 00:04:05,VALID,918.104,VALID,0,VALID,97.5187,VALID,0,VALID,19.5873,VALID,131,VALID,0,
2012-11-10, 00:05:05,VALID,918.109,VALID,0,VALID,97.5035,VALID,0,VALID,19.6473,VALID,132,VALID,0,
2012-11-10, 00:06:05,VALID,918.093,VALID,0,VALID,97.534,VALID,0,VALID,19.6068,VALID,132,VALID,0,
2012-11-10, 00:07:05,VALID,918.1,VALID,0,VALID,97.4882,VALID,0,VALID,19.6083,VALID,132,VALID,0,
2012-11-10, 00:08:05,VALID,918.118,VALID,0,VALID,97.5187,VALID,0,VALID,19.5873,VALID,131,VALID,0,
2012-11-10, 00:09:05,VALID,918.141,VALID,0,VALID,97.5187,VALID,0,VALID,19.5873,VALID,131,VALID,0,
2012-11-10, 00:10:05,VALID,918.12,VALID,0.2,VALID,97.5035,VALID,0,VALID,19.5873,VALID,131,VALID,0,
2012-11-10, 00:11:05,VALID,918.111,VALID,0,VALID,97.4882,VALID,0,VALID,19.6083,VALID,131,VALID,0,
2012-11-10, 00:12:05,VALID,918.139,VALID,0,VALID,97.5035,VALID,0,VALID,19.5678,VALID,26,VALID,0,
2012-11-10, 00:13:05,VALID,918.132,VALID,0,VALID,97.5187,VALID,0,VALID,19.5888,VALID,9,VALID,0,
2012-11-10, 00:14:05,VALID,918.129,VALID,0,VALID,97.5111,VALID,0,VALID,19.5678,VALID,9,VALID,0,
2012-11-10, 00:15:05,VALID,918.101,VALID,0,VALID,97.4959,VALID,0,VALID,19.6068,VALID,9,VALID,0,
2012-11-10, 00:16:05,VALID,918.076,VALID,0,VALID,97.5111,VALID,0,VALID,19.6068,VALID,9,VALID,0,
2012-11-10, 00:17:05,VALID,918.044,VALID,0,VALID,97.5264,VALID,0.107441,VALID,19.6068,VALID,10,VALID,0,
2012-11-10, 00:18:05,VALID,917.997,VALID,0,VALID,97.5187,VALID,0,VALID,19.6263,VALID,357,VALID,0,
2012-11-10, 00:19:05,VALID,917.995,VALID,0,VALID,97.5187,VALID,0,VALID,19.6278,VALID,7,VALID,0,
2012-11-10, 00:20:05,VALID,917.962,VALID,0,VALID,97.5187,VALID,0,VALID,19.6278,VALID,358,VALID,0,
2012-11-10, 00:21:05,VALID,917.905,VALID,0,VALID,97.5187,VALID,0,VALID,19.6458,VALID,338,VALID,0,
2012-11-10, 00:22:05,VALID,917.865,VALID,0,VALID,97.5492,VALID,0,VALID,19.6458,VALID,338,VALID,0,
2012-11-10, 00:23:05,VALID,917.851,VALID,0,VALID,97.5264,VALID,0,VALID,19.6668,VALID,338,VALID,0,
2012-11-10, 00:24:05,VALID,917.839,VALID,0,VALID,97.5264,VALID,0,VALID,19.7253,VALID,338,VALID,0,
2012-11-10, 00:25:05,VALID,917.831,VALID,0,VALID,97.534,VALID,0,VALID,19.7043,VALID,338,VALID,0,
2012-11-10, 00:26:05,VALID,917.824,VALID,0,VALID,97.5264,VALID,0,VALID,19.7238,VALID,19,VALID,0,
2012-11-10, 00:27:05,VALID,917.824,VALID,0.4,VALID,97.534,VALID,0,VALID,19.7043,VALID,25,VALID,0,
2012-11-10, 00:28:05,VALID,917.815,VALID,0.6,VALID,97.5264,VALID,0,VALID,19.7058,VALID,42,VALID,0,
2012-11-10, 00:29:05,VALID,917.828,VALID,0.6,VALID,97.5187,VALID,0,VALID,19.6863,VALID,42,VALID,0,
2012-11-10, 00:30:05,VALID,917.791,VALID,0.6,VALID,97.5416,VALID,0,VALID,19.7058,VALID,42,VALID,0,
2012-11-10, 00:31:05,VALID,917.782,VALID,0.4,VALID,97.5264,VALID,0,VALID,19.6848,VALID,42,VALID,0,
2012-11-10, 00:32:05,VALID,917.763,VALID,0.4,VALID,97.5111,VALID,0,VALID,19.7058,VALID,42,VALID,0,
2012-11-10, 00:33:05,VALID,917.742,VALID,0.2,VALID,97.5264,VALID,0,VALID,19.7043,VALID,42,VALID,0,
2012-11-10, 00:34:05,VALID,917.739,VALID,0.2,VALID,97.5264,VALID,0,VALID,19.7043,VALID,42,VALID,0,
2012-11-10, 00:35:05,VALID,917.753,VALID,0.2,VALID,97.5187,VALID,0,VALID,19.6848,VALID,34,VALID,0,
2012-11-10, 00:36:05,VALID,917.704,VALID,0.2,VALID,97.5187,VALID,0,VALID,19.6848,VALID,26,VALID,0,
2012-11-10, 00:37:05,VALID,917.672,VALID,0,VALID,97.5492,VALID,0,VALID,19.6848,VALID,41,VALID,0,
2012-11-10, 00:38:05,VALID,917.676,VALID,0.2,VALID,97.5187,VALID,0,VALID,19.6653,VALID,38,VALID,0,
2012-11-10, 00:39:05,VALID,917.659,VALID,0,VALID,97.534,VALID,0,VALID,19.6848,VALID,38,VALID,0,
2012-11-10, 00:40:05,VALID,917.61,VALID,0.2,VALID,97.5264,VALID,0,VALID,19.6653,VALID,40,VALID,0,
2012-11-10, 00:41:05,VALID,917.576,VALID,0,VALID,97.5569,VALID,0,VALID,19.6653,VALID,43,VALID,0,
2012-11-10, 00:42:05,VALID,917.559,VALID,0,VALID,97.534,VALID,0,VALID,19.6848,VALID,43,VALID,0,
2012-11-10, 00:43:05,VALID,917.541,VALID,0,VALID,97.5264,VALID,0,VALID,19.6848,VALID,43,VALID,0,
2012-11-10, 00:44:05,VALID,917.519,VALID,0.2,VALID,97.5264,VALID,0,VALID,19.6848,VALID,43,VALID,0,
2012-11-10, 00:45:05,VALID,917.517,VALID,0,VALID,97.534,VALID,0,VALID,19.6653,VALID,43,VALID,0,
2012-11-10, 00:46:05,VALID,917.475,VALID,0,VALID,97.5416,VALID,0,VALID,19.7058,VALID,43,VALID,0,
2012-11-10, 00:47:05,VALID,917.463,VALID,0.2,VALID,97.534,VALID,0,VALID,19.6848,VALID,43,VALID,0,
2012-11-10, 00:48:05,VALID,917.453,VALID,0,VALID,97.534,VALID,0,VALID,19.6848,VALID,43,VALID,0,
2012-11-10, 00:49:05,VALID,917.455,VALID,0.2,VALID,97.5416,VALID,0,VALID,19.6653,VALID,43,VALID,0,
2012-11-10, 00:50:05,VALID,917.442,VALID,0,VALID,97.534,VALID,0,VALID,19.6458,VALID,43,VALID,0,
2012-11-10, 00:51:05,VALID,917.43,VALID,0,VALID,97.534,VALID,0,VALID,19.6458,VALID,43,VALID,0,
2012-11-10, 00:52:05,VALID,917.413,VALID,0.2,VALID,97.5492,VALID,0,VALID,19.6458,VALID,43,VALID,0,
2012-11-10, 00:53:05,VALID,917.406,VALID,0,VALID,97.5492,VALID,0,VALID,19.6068,VALID,43,VALID,0,
2012-11-10, 00:54:05,VALID,917.398,VALID,0.2,VALID,97.5721,VALID,0,VALID,19.6473,VALID,43,VALID,0,
2012-11-10, 00:55:05,VALID,917.427,VALID,0.2,VALID,97.5187,VALID,0,VALID,19.6458,VALID,43,VALID,0,
2012-11-10, 00:56:05,VALID,917.41,VALID,0.2,VALID,97.5416,VALID,0,VALID,19.6458,VALID,43,VALID,0,
2012-11-10, 00:57:05,VALID,917.399,VALID,0,VALID,97.5416,VALID,0,VALID,19.6263,VALID,43,VALID,0,
2012-11-10, 00:58:05,VALID,917.408,VALID,0.2,VALID,97.5416,VALID,0,VALID,19.6068,VALID,43,VALID,0,
2012-11-10, 00:59:05,VALID,917.416,VALID,0,VALID,97.5416,VALID,0,VALID,19.6083,VALID,43,VALID,0,
2012-11-10, 01:00:05,VALID,917.423,VALID,0.2,VALID,97.5492,VALID,0,VALID,19.5678,VALID,43,VALID,0,
2012-11-10, 01:01:05,VALID,917.393,VALID,0,VALID,97.5492,VALID,0,VALID,19.5498,VALID,43,VALID,0,
2012-11-10, 01:02:05,VALID,917.427,VALID,0,VALID,97.5416,VALID,0,VALID,19.5693,VALID,43,VALID,0,
2012-11-10, 01:03:05,VALID,917.412,VALID,0.2,VALID,97.5416,VALID,0,VALID,19.5483,VALID,43,VALID,0,
2012-11-10, 01:04:05,VALID,917.426,VALID,0,VALID,97.5569,VALID,0,VALID,19.5888,VALID,43,VALID,0,
2012-11-10, 01:05:05,VALID,917.404,VALID,0,VALID,97.5569,VALID,0,VALID,19.5873,VALID,43,VALID,0,
2012-11-10, 01:06:05,VALID,917.438,VALID,0.2,VALID,97.5569,VALID,0,VALID,19.5888,VALID,43,VALID,0,
2012-11-10, 01:07:05,VALID,917.408,VALID,0,VALID,97.5569,VALID,0,VALID,19.6068,VALID,43,VALID,0,
2012-11-10, 01:08:05,VALID,917.415,VALID,0,VALID,97.5416,VALID,0,VALID,19.6083,VALID,43,VALID,0,
2012-11-10, 01:09:05,VALID,917.424,VALID,0.2,VALID,97.534,VALID,0,VALID,19.5483,VALID,43,VALID,0,
2012-11-10, 01:10:05,VALID,917.432,VALID,0,VALID,97.5569,VALID,0,VALID,19.5303,VALID,46,VALID,0,
2012-11-10, 01:11:05,VALID,917.433,VALID,0,VALID,97.5645,VALID,0,VALID,19.4703,VALID,46,VALID,0,
2012-11-10, 01:12:05,VALID,917.411,VALID,0.2,VALID,97.5569,VALID,0,VALID,19.4703,VALID,46,VALID,0,
2012-11-10, 01:13:05,VALID,917.43,VALID,0,VALID,97.5569,VALID,0,VALID,19.4718,VALID,46,VALID,0,
2012-11-10, 01:14:05,VALID,917.411,VALID,0,VALID,97.5797,VALID,0,VALID,19.4718,VALID,46,VALID,0,
2012-11-10, 01:15:05,VALID,917.391,VALID,0.2,VALID,97.5721,VALID,0,VALID,19.4508,VALID,46,VALID,0,
2012-11-10, 01:16:05,VALID,917.421,VALID,0,VALID,97.5721,VALID,0,VALID,19.4508,VALID,46,VALID,0,
2012-11-10, 01:17:05,VALID,917.389,VALID,0.2,VALID,97.5645,VALID,0,VALID,19.4508,VALID,46,VALID,0,
2012-11-10, 01:18:05,VALID,917.371,VALID,0,VALID,97.5569,VALID,0,VALID,19.4313,VALID,46,VALID,0,
2012-11-10, 01:19:05,VALID,917.363,VALID,0.2,VALID,97.5873,VALID,0,VALID,19.4313,VALID,46,VALID,0,
2012-11-10, 01:20:05,VALID,917.342,VALID,0,VALID,97.595,VALID,0,VALID,19.4523,VALID,46,VALID,0,
2012-11-10, 01:21:05,VALID,917.333,VALID,0.2,VALID,97.5721,VALID,0,VALID,19.4508,VALID,46,VALID,0,
2012-11-10, 01:22:05,VALID,917.314,VALID,0,VALID,97.5721,VALID,0,VALID,19.4313,VALID,46,VALID,0,
2012-11-10, 01:23:05,VALID,917.269,VALID,0.2,VALID,97.5797,VALID,0,VALID,19.4523,VALID,46,VALID,0,
2012-11-10, 01:24:05,VALID,917.287,VALID,0,VALID,97.5721,VALID,0,VALID,19.4118,VALID,46,VALID,0,
2012-11-10, 01:25:05,VALID,917.257,VALID,0.2,VALID,97.5873,VALID,0,VALID,19.4327,VALID,46,VALID,0,
2012-11-10, 01:26:05,VALID,917.243,VALID,0,VALID,97.5873,VALID,0,VALID,19.4537,VALID,46,VALID,0,
2012-11-10, 01:27:05,VALID,917.226,VALID,0.2,VALID,97.5873,VALID,0,VALID,19.4927,VALID,46,VALID,0,
2012-11-10, 01:28:05,VALID,917.211,VALID,0,VALID,97.5797,VALID,0,VALID,19.4927,VALID,46,VALID,0,
2012-11-10, 01:29:05,VALID,917.193,VALID,0,VALID,97.5873,VALID,0,VALID,19.4703,VALID,46,VALID,0,
2012-11-10, 01:30:05,VALID,917.165,VALID,0.2,VALID,97.5873,VALID,0,VALID,19.4898,VALID,46,VALID,0,
2012-11-10, 01:31:05,VALID,917.156,VALID,0,VALID,97.5873,VALID,0,VALID,19.4913,VALID,46,VALID,0,
2012-11-10, 01:32:05,VALID,917.139,VALID,0,VALID,97.5873,VALID,0,VALID,19.5093,VALID,46,VALID,0,
2012-11-10, 01:33:05,VALID,917.135,VALID,0,VALID,97.5797,VALID,0,VALID,19.5693,VALID,46,VALID,0,
2012-11-10, 01:34:05,VALID,917.157,VALID,0,VALID,97.5797,VALID,0,VALID,19.5093,VALID,46,VALID,0,
2012-11-10, 01:35:05,VALID,917.137,VALID,0,VALID,97.5873,VALID,0,VALID,19.5108,VALID,46,VALID,0,
2012-11-10, 01:36:05,VALID,917.156,VALID,0.2,VALID,97.595,VALID,0,VALID,19.4703,VALID,46,VALID,0,
2012-11-10, 01:37:05,VALID,917.161,VALID,0,VALID,97.5873,VALID,0,VALID,19.4523,VALID,46,VALID,0,
2012-11-10, 01:38:05,VALID,917.143,VALID,0,VALID,97.6102,VALID,0,VALID,19.4703,VALID,46,VALID,0,
2012-11-10, 01:39:05,VALID,917.114,VALID,0,VALID,97.5721,VALID,0,VALID,19.4898,VALID,46,VALID,0,
2012-11-10, 01:40:05,VALID,917.126,VALID,0,VALID,97.595,VALID,0,VALID,19.5108,VALID,46,VALID,0,
2012-11-10, 01:41:05,VALID,917.077,VALID,0,VALID,97.5873,VALID,0,VALID,19.5093,VALID,46,VALID,0,
2012-11-10, 01:42:05,VALID,917.081,VALID,0,VALID,97.5797,VALID,0,VALID,19.4688,VALID,46,VALID,0,
2012-11-10, 01:43:05,VALID,917.049,VALID,0,VALID,97.6026,VALID,0,VALID,19.4703,VALID,46,VALID,0,
2012-11-10, 01:44:05,VALID,917.051,VALID,0,VALID,97.5873,VALID,0,VALID,19.4703,VALID,46,VALID,0,
2012-11-10, 01:45:05,VALID,917.045,VALID,0,VALID,97.595,VALID,0,VALID,19.4508,VALID,46,VALID,0,
2012-11-10, 01:46:05,VALID,917.037,VALID,0,VALID,97.5721,VALID,0,VALID,19.4508,VALID,46,VALID,0,
2012-11-10, 01:47:05,VALID,917.029,VALID,0,VALID,97.595,VALID,0,VALID,19.4703,VALID,46,VALID,0,
2012-11-10, 01:48:05,VALID,917.011,VALID,0,VALID,97.595,VALID,0,VALID,19.4718,VALID,46,VALID,0,
2012-11-10, 01:49:05,VALID,917.016,VALID,0,VALID,97.595,VALID,0,VALID,19.4913,VALID,46,VALID,0,
2012-11-10, 01:50:05,VALID,917.017,VALID,0,VALID,97.5873,VALID,0,VALID,19.4703,VALID,46,VALID,0,
2012-11-10, 01:51:05,VALID,916.969,VALID,0,VALID,97.595,VALID,0,VALID,19.4508,VALID,46,VALID,0,
2012-11-10, 01:52:05,VALID,916.956,VALID,0,VALID,97.5721,VALID,0,VALID,19.4703,VALID,46,VALID,0,
2012-11-10, 01:53:05,VALID,916.92,VALID,0,VALID,97.6026,VALID,0,VALID,19.4898,VALID,46,VALID,0,
2012-11-10, 01:54:05,VALID,916.877,VALID,0.2,VALID,97.5873,VALID,0,VALID,19.5093,VALID,46,VALID,0,
2012-11-10, 01:55:05,VALID,916.845,VALID,0,VALID,97.595,VALID,0.107441,VALID,19.5498,VALID,46,VALID,0,
2012-11-10, 01:56:05,VALID,916.827,VALID,0,VALID,97.5721,VALID,0,VALID,19.5093,VALID,46,VALID,0,
2012-11-10, 01:57:05,VALID,916.8,VALID,0,VALID,97.6102,VALID,0,VALID,19.5303,VALID,46,VALID,0,
2012-11-10, 01:58:05,VALID,916.778,VALID,0,VALID,97.6102,VALID,0,VALID,19.4898,VALID,46,VALID,0,
2012-11-10, 01:59:05,VALID,916.753,VALID,0,VALID,97.595,VALID,0,VALID,19.5093,VALID,46,VALID,0,
2012-11-10, 02:00:05,VALID,916.774,VALID,0,VALID,97.6255,VALID,0,VALID,19.4718,VALID,46,VALID,0,
2012-11-10, 02:01:05,VALID,916.755,VALID,0,VALID,97.595,VALID,0,VALID,19.4118,VALID,46,VALID,0,
2012-11-10, 02:02:05,VALID,916.726,VALID,0.2,VALID,97.5873,VALID,0,VALID,19.3923,VALID,46,VALID,0,
2012-11-10, 02:03:05,VALID,916.71,VALID,0,VALID,97.6102,VALID,0,VALID,19.3923,VALID,46,VALID,0,
2012-11-10, 02:04:05,VALID,916.685,VALID,0,VALID,97.595,VALID,0,VALID,19.3923,VALID,46,VALID,0,
2012-11-10, 02:05:05,VALID,916.669,VALID,0,VALID,97.6102,VALID,0,VALID,19.4118,VALID,46,VALID,0,
2012-11-10, 02:06:05,VALID,916.66,VALID,0,VALID,97.6026,VALID,0,VALID,19.4327,VALID,46,VALID,0,
2012-11-10, 02:07:05,VALID,916.663,VALID,0,VALID,97.6178,VALID,0,VALID,19.4327,VALID,46,VALID,0,
2012-11-10, 02:08:05,VALID,916.624,VALID,0,VALID,97.6178,VALID,0,VALID,19.4523,VALID,46,VALID,0,
2012-11-10, 02:09:05,VALID,916.614,VALID,0,VALID,97.6026,VALID,0,VALID,19.4508,VALID,46,VALID,0,
2012-11-10, 02:10:05,VALID,916.579,VALID,0,VALID,97.595,VALID,0,VALID,19.4913,VALID,46,VALID,0,
2012-11-10, 02:11:05,VALID,916.532,VALID,0,VALID,97.6178,VALID,0,VALID,19.4508,VALID,46,VALID,0,
2012-11-10, 02:12:05,VALID,916.514,VALID,0,VALID,97.595,VALID,0,VALID,19.4508,VALID,46,VALID,0,
2012-11-10, 02:13:05,VALID,916.493,VALID,0,VALID,97.6102,VALID,0,VALID,19.4508,VALID,46,VALID,0,
2012-11-10, 02:14:04,VALID,916.46,VALID,0,VALID,97.6102,VALID,0,VALID,19.4508,VALID,46,VALID,0,
2012-11-10, 02:15:04,VALID,916.451,VALID,0,VALID,97.6255,VALID,0,VALID,19.4508,VALID,46,VALID,0,
2012-11-10, 02:16:04,VALID,916.447,VALID,0,VALID,97.6255,VALID,0,VALID,19.4718,VALID,46,VALID,0,
2012-11-10, 02:17:04,VALID,916.419,VALID,0,VALID,97.6102,VALID,0,VALID,19.4508,VALID,46,VALID,0,
2012-11-10, 02:18:04,VALID,916.394,VALID,0,VALID,97.6255,VALID,0,VALID,19.4523,VALID,46,VALID,0,
2012-11-10, 02:19:04,VALID,916.397,VALID,0,VALID,97.6178,VALID,0,VALID,19.4313,VALID,46,VALID,0,
2012-11-10, 02:20:04,VALID,916.36,VALID,0,VALID,97.6331,VALID,0,VALID,19.3728,VALID,46,VALID,0,
2012-11-10, 02:21:04,VALID,916.347,VALID,0,VALID,97.6483,VALID,0,VALID,19.3937,VALID,46,VALID,0,
2012-11-10, 02:22:04,VALID,916.338,VALID,0,VALID,97.6255,VALID,0,VALID,19.3728,VALID,46,VALID,0,
2012-11-10, 02:23:04,VALID,916.294,VALID,0,VALID,97.6255,VALID,0.107441,VALID,19.3728,VALID,151,VALID,0,
2012-11-10, 02:24:04,VALID,916.271,VALID,0,VALID,97.6178,VALID,0,VALID,19.3742,VALID,186,VALID,0,
2012-11-10, 02:25:04,VALID,916.239,VALID,0,VALID,97.6407,VALID,0,VALID,19.3742,VALID,188,VALID,0,
2012-11-10, 02:26:04,VALID,916.257,VALID,0,VALID,97.6407,VALID,0,VALID,19.3533,VALID,188,VALID,0,
2012-11-10, 02:27:04,VALID,916.263,VALID,0,VALID,97.6102,VALID,0,VALID,19.3533,VALID,186,VALID,0,
2012-11-10, 02:28:04,VALID,916.26,VALID,0,VALID,97.6178,VALID,0,VALID,19.3742,VALID,186,VALID,0,
2012-11-10, 02:29:04,VALID,916.27,VALID,0,VALID,97.6255,VALID,0,VALID,19.3338,VALID,182,VALID,0,
2012-11-10, 02:30:04,VALID,916.238,VALID,0,VALID,97.6178,VALID,0,VALID,19.3533,VALID,186,VALID,0,
2012-11-10, 02:31:04,VALID,916.258,VALID,0,VALID,97.6407,VALID,0.107441,VALID,19.3742,VALID,186,VALID,0,
2012-11-10, 02:32:04,VALID,916.258,VALID,0,VALID,97.6331,VALID,0,VALID,19.3533,VALID,186,VALID,0,
2012-11-10, 02:33:04,VALID,916.246,VALID,0,VALID,97.6483,VALID,0,VALID,19.3533,VALID,186,VALID,0,
2012-11-10, 02:34:04,VALID,916.275,VALID,0.2,VALID,97.6331,VALID,0,VALID,19.3338,VALID,186,VALID,0,
2012-11-10, 02:35:04,VALID,916.238,VALID,0,VALID,97.6331,VALID,0,VALID,19.3338,VALID,186,VALID,0,
2012-11-10, 02:36:04,VALID,916.249,VALID,0,VALID,97.6483,VALID,0,VALID,19.3547,VALID,186,VALID,0,
2012-11-10, 02:37:04,VALID,916.27,VALID,0,VALID,97.6178,VALID,0,VALID,19.3533,VALID,186,VALID,0,
2012-11-10, 02:38:04,VALID,916.248,VALID,0,VALID,97.6483,VALID,0,VALID,19.3533,VALID,186,VALID,0,
2012-11-10, 02:39:04,VALID,916.181,VALID,0,VALID,97.6407,VALID,0,VALID,19.3728,VALID,186,VALID,0,
2012-11-10, 02:40:04,VALID,916.263,VALID,0,VALID,97.6331,VALID,0,VALID,19.3937,VALID,186,VALID,0,
2012-11-10, 02:41:04,VALID,916.375,VALID,0,VALID,97.6483,VALID,0,VALID,19.3937,VALID,186,VALID,0,
2012-11-10, 02:42:04,VALID,916.082,VALID,0,VALID,97.6331,VALID,0,VALID,19.4132,VALID,186,VALID,0,
2012-11-10, 02:43:04,VALID,916.204,VALID,0,VALID,97.6407,VALID,0,VALID,19.3923,VALID,186,VALID,0,
2012-11-10, 02:44:04,VALID,916.134,VALID,0,VALID,97.6407,VALID,0,VALID,19.3923,VALID,186,VALID,0,
2012-11-10, 02:45:04,VALID,916.672,VALID,0,VALID,97.6407,VALID,0,VALID,19.3923,VALID,186,VALID,0,
2012-11-10, 02:46:04,VALID,916.479,VALID,0,VALID,97.6483,VALID,0,VALID,19.4118,VALID,186,VALID,0,
2012-11-10, 02:47:04,VALID,915.804,VALID,0,VALID,97.6255,VALID,0,VALID,19.4132,VALID,186,VALID,0,
2012-11-10, 02:48:04,VALID,917.129,VALID,0,VALID,97.6483,VALID,0,VALID,19.3728,VALID,186,VALID,0,
2012-11-10, 02:49:04,VALID,915.857,VALID,0,VALID,97.6407,VALID,0,VALID,19.4132,VALID,186,VALID,0,
2012-11-10, 02:50:04,VALID,914.308,VALID,0,VALID,97.6483,VALID,0,VALID,19.4132,VALID,186,VALID,0,
2012-11-10, 02:51:04,VALID,915.733,VALID,0,VALID,97.6407,VALID,0,VALID,19.4327,VALID,186,VALID,0,
2012-11-10, 02:52:04,INVALID,907.52,VALID,0,VALID,97.656,VALID,0,VALID,19.4523,VALID,186,VALID,0,
2012-11-10, 02:53:04,INVALID,910.405,VALID,0,VALID,97.6255,VALID,0.107441,VALID,19.4508,VALID,186,VALID,0,
2012-11-10, 06:44:04,VALID,917.428,VALID,0,VALID,97.7093,VALID,54.4727,VALID,19.4523,VALID,162,VALID,0,
2012-11-10, 06:45:04,VALID,917.279,VALID,0,VALID,97.7246,VALID,55.3322,VALID,19.4508,VALID,166,VALID,0,
2012-11-10, 06:46:04,VALID,917.122,VALID,0,VALID,97.7169,VALID,56.7289,VALID,19.4718,VALID,166,VALID,0,
2012-11-10, 06:47:04,VALID,916.909,VALID,0,VALID,97.7246,VALID,66.5061,VALID,19.4703,VALID,161,VALID,0,
2012-11-10, 06:48:04,VALID,916.856,VALID,0,VALID,97.7017,VALID,68.3326,VALID,19.4913,VALID,132,VALID,0,
2012-11-10, 06:49:04,VALID,917.271,VALID,0,VALID,97.7093,VALID,72.4153,VALID,19.4913,VALID,154,VALID,0,
2012-11-10, 06:50:04,VALID,916.977,VALID,0,VALID,97.7093,VALID,65.8614,VALID,19.5108,VALID,128,VALID,0,
2012-11-10, 06:51:04,VALID,916.991,VALID,0,VALID,97.7093,VALID,71.4484,VALID,19.5108,VALID,142,VALID,0,
2012-11-10, 06:52:04,VALID,916.849,VALID,0,VALID,97.7169,VALID,65.8614,VALID,19.5303,VALID,138,VALID,0,
2012-11-10, 06:53:04,VALID,917.315,VALID,0,VALID,97.6865,VALID,63.7126,VALID,19.5498,VALID,150,VALID,0,
2012-11-10, 06:54:04,VALID,916.734,VALID,0,VALID,97.7093,VALID,66.5061,VALID,19.5693,VALID,134,VALID,0,
2012-11-10, 06:55:04,VALID,917.236,VALID,0,VALID,97.7169,VALID,82.2999,VALID,19.5303,VALID,124,VALID,0,
2012-11-10, 06:56:04,VALID,917.298,VALID,0,VALID,97.6865,VALID,81.2255,VALID,19.5498,VALID,134,VALID,0,
2012-11-10, 06:57:04,VALID,917.106,VALID,0,VALID,97.7093,VALID,84.7711,VALID,19.5498,VALID,131,VALID,0,
2012-11-10, 06:58:04,VALID,917.534,VALID,0,VALID,97.6941,VALID,85.3083,VALID,19.6083,VALID,125,VALID,0,
2012-11-10, 06:59:04,VALID,917.526,VALID,0,VALID,97.6788,VALID,76.3907,VALID,19.5873,VALID,146,VALID,0,
2012-11-10, 07:00:04,VALID,917.075,VALID,0,VALID,97.7093,VALID,75.5311,VALID,19.5888,VALID,139,VALID,0,
2012-11-10, 07:01:04,VALID,916.972,VALID,0,VALID,97.6865,VALID,79.7213,VALID,19.6278,VALID,130,VALID,0,
2012-11-10, 07:02:04,VALID,916.505,VALID,0,VALID,97.6788,VALID,86.1678,VALID,19.6083,VALID,119,VALID,0,
2012-11-10, 07:03:04,VALID,916.908,VALID,0,VALID,97.6788,VALID,87.7794,VALID,19.6263,VALID,149,VALID,0,
2012-11-10, 07:04:04,VALID,916.931,VALID,0,VALID,97.6788,VALID,103.788,VALID,19.6473,VALID,129,VALID,0,
2012-11-10, 07:05:04,VALID,916.889,VALID,0,VALID,97.6865,VALID,103.788,VALID,19.7253,VALID,133,VALID,0,
2012-11-10, 07:06:04,VALID,916.727,VALID,0,VALID,97.6788,VALID,131.186,VALID,19.6863,VALID,118,VALID,0,
2012-11-10, 07:07:04,VALID,916.433,VALID,0,VALID,97.656,VALID,91.0027,VALID,19.7238,VALID,177,VALID,0,
2012-11-10, 07:08:04,VALID,916.885,VALID,0,VALID,97.7017,VALID,139.351,VALID,19.7238,VALID,121,VALID,0,
2012-11-10, 07:09:04,VALID,916.915,VALID,0,VALID,97.6636,VALID,160.732,VALID,19.7628,VALID,145,VALID,0,
2012-11-10, 07:10:04,VALID,916.909,VALID,0,VALID,97.6636,VALID,167.608,VALID,19.8213,VALID,152,VALID,0,
2012-11-10, 07:11:04,VALID,916.862,VALID,0,VALID,97.6712,VALID,159.013,VALID,19.8408,VALID,149,VALID,0,
2012-11-10, 07:12:04,VALID,916.988,VALID,0,VALID,97.6636,VALID,159.765,VALID,19.9773,VALID,147,VALID,0,
2012-11-10, 07:13:04,VALID,917.053,VALID,0,VALID,97.6178,VALID,163.633,VALID,20.0569,VALID,128,VALID,0,
2012-11-10, 07:14:04,VALID,916.942,VALID,0,VALID,97.6255,VALID,165.03,VALID,20.0179,VALID,163,VALID,0,
2012-11-10, 07:15:04,VALID,917.056,VALID,0,VALID,97.6331,VALID,166.426,VALID,19.9773,VALID,150,VALID,0,
2012-11-10, 07:16:04,VALID,917.174,VALID,0,VALID,97.6102,VALID,168.038,VALID,20.0163,VALID,168,VALID,0,
2012-11-10, 07:17:04,VALID,917.076,VALID,0,VALID,97.6026,VALID,169.005,VALID,20.0358,VALID,176,VALID,0,
2012-11-10, 07:18:04,VALID,917.079,VALID,0,VALID,97.6178,VALID,160.41,VALID,20.0989,VALID,169,VALID,0,
2012-11-10, 07:19:04,VALID,916.304,VALID,0,VALID,97.5873,VALID,169.005,VALID,20.0133,VALID,172,VALID,0,
2012-11-10, 07:20:04,VALID,917.094,VALID,0,VALID,97.595,VALID,169.22,VALID,20.0538,VALID,149,VALID,0,
2012-11-10, 07:21:04,VALID,917.236,VALID,0,VALID,97.5797,VALID,169.864,VALID,20.1529,VALID,143,VALID,0,
2012-11-10, 07:22:04,VALID,916.959,VALID,0,VALID,97.595,VALID,169.65,VALID,20.1513,VALID,142,VALID,0,
2012-11-10, 07:23:04,VALID,917.263,VALID,0,VALID,97.5797,VALID,168.253,VALID,20.1919,VALID,148,VALID,0,
2012-11-10, 07:24:04,VALID,917.173,VALID,0,VALID,97.5416,VALID,164.707,VALID,20.1739,VALID,168,VALID,0,
2012-11-10, 07:25:04,VALID,917.215,VALID,0,VALID,97.5492,VALID,156.542,VALID,20.1334,VALID,162,VALID,0,
2012-11-10, 07:26:04,VALID,917.178,VALID,0,VALID,97.5264,VALID,145.905,VALID,20.1739,VALID,183,VALID,0,
2012-11-10, 07:27:04,VALID,917.066,VALID,0,VALID,97.5492,VALID,136.558,VALID,20.1934,VALID,122,VALID,0,
2012-11-10, 07:28:04,VALID,917.657,VALID,0,VALID,97.5264,VALID,131.938,VALID,20.1739,VALID,141,VALID,0,
2012-11-10, 07:29:04,VALID,917.299,VALID,0,VALID,97.473,VALID,131.83,VALID,20.1934,VALID,145,VALID,0,
2012-11-10, 07:30:04,VALID,917.391,VALID,0,VALID,97.4882,VALID,130.434,VALID,20.1934,VALID,164,VALID,0,
2012-11-10, 07:31:04,VALID,917.314,VALID,0,VALID,97.4882,VALID,131.401,VALID,20.1739,VALID,167,VALID,0,
2012-11-10, 07:32:04,VALID,917.39,VALID,0,VALID,97.4501,VALID,133.334,VALID,20.1934,VALID,169,VALID,0,
2012-11-10, 07:33:04,VALID,917.403,VALID,0,VALID,97.4501,VALID,136.558,VALID,20.2129,VALID,161,VALID,0,
2012-11-10, 07:34:04,VALID,917.42,VALID,0,VALID,97.4273,VALID,137.525,VALID,20.2129,VALID,156,VALID,0,
2012-11-10, 07:35:04,VALID,917.547,VALID,0,VALID,97.4196,VALID,142.682,VALID,20.2324,VALID,154,VALID,0,
2012-11-10, 07:36:04,VALID,917.446,VALID,0,VALID,97.4044,VALID,145.046,VALID,20.2714,VALID,157,VALID,0,
2012-11-10, 07:37:04,VALID,917.542,VALID,0,VALID,97.3815,VALID,137.525,VALID,20.33,VALID,161,VALID,0,
2012-11-10, 07:38:04,VALID,917.611,VALID,0,VALID,97.3739,VALID,151.814,VALID,20.2894,VALID,180,VALID,0,
2012-11-10, 07:39:04,VALID,917.572,VALID,0,VALID,97.3739,VALID,154.608,VALID,20.3105,VALID,147,VALID,0,
2012-11-10, 07:40:04,VALID,917.549,VALID,0,VALID,97.3434,VALID,157.509,VALID,20.33,VALID,143,VALID,0,
2012-11-10, 07:41:04,VALID,917.554,VALID,0,VALID,97.3053,VALID,152.566,VALID,20.39,VALID,169,VALID,0,
2012-11-10, 07:42:04,VALID,917.565,VALID,0,VALID,97.2977,VALID,162.021,VALID,20.408,VALID,138,VALID,0,
2012-11-10, 07:43:04,VALID,917.552,VALID,0,VALID,97.2748,VALID,172.013,VALID,20.4454,VALID,170,VALID,0,
2012-11-10, 07:44:04,VALID,917.582,VALID,0,VALID,97.2595,VALID,173.84,VALID,20.4454,VALID,161,VALID,0,
2012-11-10, 07:45:04,VALID,917.669,VALID,0,VALID,97.2443,VALID,180.716,VALID,20.465,VALID,165,VALID,0,
2012-11-10, 07:46:04,VALID,917.705,VALID,0,VALID,97.2367,VALID,149.021,VALID,20.525,VALID,142,VALID,0,